sat.trackr.live / text

‹ back to catalog

STARLINK-11689 [DTC]

NORAD 64241 · 2025-119J

PAYLOAD ACTIVE UNKNOWN

§ Identity

Operator
Country
US
Launch date
2025-06-03
Launch site
AFETR
Launch vehicle
Mass (kg)
RCS (m²)

Purposes: comms

External: N2YO · Heavens-Above · Gunter

§ Orbital elements

Epoch: 2026-09-20T22:42:05.010912Z

Period
91.67 min
Inclination
43.0019°
Eccentricity
0.0002323
Mean motion
15.70845608 rev/d
Perigee alt
354.9 km
Apogee alt
358.0 km
Semi-major
6,734.6 km
B*
9.1760e-4
RAAN
112.1568°
Arg perigee
264.1531°
Mean anomaly
95.9072°
Rev number
7,595

§ Raw data

STARLINK-11689 [DTC]1 64241U 25119J   26263.94589133  .00119026  00000+0  91760-3 0  99902 64241  43.0019 112.1568 0002323 264.1531  95.9072 15.70845608 75954

JSON: /api/v1/satellites/64241 · /tle

For live sub-satellite position, see the globe view (requires WebGL).

§ Visibility from observer

Set your observer location to see the next 7 days of passes ≥ 10°. The values pass through the URL so the page stays shareable.

No JS? Fill the form by hand. The geolocation button needs JavaScript.